Tracking 19706 objects as of 16-Jun-2019
HD Live streaming from Space Station
objects crossing your sky now

STARLINK OBJ AK

Track STARLINK OBJ AK now!
10-day predictions


NORAD ID: 44268
Int'l Code: 2019-029AK
Perigee: 532.1 km
Apogee: 548.3 km
Inclination: 53.0 °
Period: 95.3 minutes
Semi major axis: 6911 km
RCS: Unknown
Launch date: May 24, 2019
Source: United States (US)
Launch site: AIR FORCE EASTERN TEST RANGE (AFETR)
aabbcc
Your satellite tracking list
Your tracking list is empty




NASA's NSSDC Master Catalog

Two Line Element Set (TLE):
1 44268U 19029AK  19166.92990844 +.00455071 +00000-0 +25248-1 0  9997
2 44268 052.9976 069.3206 0011689 359.7949 000.3034 15.11022863002664
Source of the keplerian elements: AFSPC